Mullan Pass, ID

4:10 AM PDT on October 21, 2019 (GMT -0700)
Mullan Pass

Weather History for KMLP - August, 2019

Change the Weather History Date:

Tuesday, August 27, 2019

  Actual Average (K3TH) Record (K3TH)
Temperature  
Mean Temperature 58 °F -  
Max Temperature 68 °F 81 °F 95 °F (2001)
Min Temperature 48 °F 51 °F 48 °F (1998)
Degree Days  
Heating Degree Days 7    
Growing Degree Days 8 (Base 50)    
Moisture  
Dew Point 33 °F    
Average Humidity 40    
Maximum Humidity 54    
Minimum Humidity 29    
Precipitation  
Precipitation 0.00 in - - ()
Sea Level Pressure  
Sea Level Pressure 30.00 in    
Wind  
Wind Speed 3 mph (WNW)    
Max Wind Speed 5 mph    
Max Gust Speed -    
Visibility 10 miles    
Events      
Averages and records for this station are not official NWS values.
T = Trace of Precipitation, MM = Missing Value Source: NWS Daily Summary

Daily Weather History Graph

Daily Weather History Graph

Search for Another Location

Airport or City:

Astronomy

Aug. 27, 2019 Rise Set
Actual Time 5:54 AM PDT 7:32 PM PDT
Civil Twilight 5:22 AM PDT 8:05 PM PDT
Nautical Twilight 4:42 AM PDT 8:44 PM PDT
Astronomical Twilight 3:59 AM PDT 9:27 PM PDT
Moon 2:08 AM PDT (8/27) 6:11 PM PDT (8/27)
Length of Visible Light 14h 42m
Length of Day
13h 38m
Waning Crescent, 10% of the Moon is Illuminated
Aug 27
Waning Crescent
Aug 30
New
Sep 5
First Quarter
Sep 13
Full
Sep 21
Last Quarter

Hourly Weather History & Observations

Time (PDT) Temp. Dew Point Humidity Pressure Visibility Wind Dir Wind Speed Gust Speed Precip Events Conditions
12:53 AM 50.0 °F 32.0 °F 50% 30.05 in 10.0 mi NW 3.5 mph - N/A   Clear
1:53 AM 48.0 °F 30.9 °F 52% 30.05 in 10.0 mi Calm Calm - N/A   Clear
2:53 AM 48.0 °F 32.0 °F 54% 30.04 in 10.0 mi NW 3.5 mph - N/A   Clear
3:53 AM 48.9 °F 30.9 °F 50% 30.04 in 10.0 mi NNW 3.5 mph - N/A   Clear
4:53 AM 50.0 °F 30.9 °F 48% 30.03 in 10.0 mi Calm Calm - N/A   Clear
5:53 AM 50.0 °F 32.0 °F 50% 30.05 in 10.0 mi WNW 3.5 mph - N/A   Clear
6:53 AM 52.0 °F 32.0 °F 47% 30.05 in 10.0 mi Calm Calm - N/A   Clear
7:53 AM 53.1 °F 32.0 °F 45% 30.05 in 10.0 mi SE 3.5 mph - N/A   Clear
8:53 AM 55.9 °F 34.0 °F 44% 30.05 in 10.0 mi Calm Calm - N/A   Clear
9:53 AM 57.0 °F 34.0 °F 42% 30.05 in 10.0 mi Calm Calm - N/A   Clear
10:53 AM 60.1 °F 35.1 °F 39% 30.04 in 10.0 mi Calm Calm - N/A   Clear
11:53 AM 62.1 °F 33.1 °F 34% 30.03 in 10.0 mi Variable 3.5 mph - N/A   Clear
12:53 PM 64.0 °F 30.9 °F 29% 30.01 in 10.0 mi Variable 4.6 mph - N/A   Clear
1:53 PM 66.0 °F 33.1 °F 29% 30.01 in 10.0 mi Variable 3.5 mph - N/A   Clear
2:53 PM 68.0 °F 35.1 °F 30% 29.99 in 10.0 mi Variable 4.6 mph - N/A   Clear
3:53 PM 68.0 °F 35.1 °F 30% 29.97 in 10.0 mi North - - N/A   Clear
4:53 PM 68.0 °F 36.0 °F 31% 29.97 in 10.0 mi Variable 4.6 mph - N/A   Clear
5:53 PM 64.9 °F 37.9 °F 37% 29.97 in 10.0 mi Calm Calm - N/A   Clear
6:53 PM 61.0 °F 37.0 °F 41% 29.96 in 10.0 mi Variable 3.5 mph - N/A   Clear
7:53 PM 59.0 °F 33.1 °F 38% 29.96 in 10.0 mi NW 3.5 mph - N/A   Clear
8:53 PM 57.9 °F 32.0 °F 37% 29.96 in 10.0 mi WNW 3.5 mph - N/A   Clear
9:53 PM 57.9 °F 32.0 °F 37% 29.95 in 10.0 mi WNW 4.6 mph - N/A   Clear
10:53 PM 61.0 °F 30.9 °F 32% 29.91 in 10.0 mi WSW 3.5 mph - N/A   Clear
11:53 PM 59.0 °F 30.9 °F 35% 29.91 in 10.0 mi WNW 3.5 mph - N/A   Clear